Starlink 31873

operational
NORAD ID: 59790 Int'l Des: 2024-093 Owner: SPXS Country: US Constellation: starlink
LEOCIRCULAR

关于 Starlink 31873

正在加载描述...

实时位置

正在加载3D地球...

即将过境

高度历史

Altitude vs Time

uPlot chart will show altitude changes over time

两行轨道根数

1 59790U 24093J 25354.22234240 .00000690 00000-0 34577-4 0 9991
2 59790 43.0012 297.5392 0000590 268.9935 91.0849 15.27572246 90545
Epoch: Dec 20, 2025 • Age: 14 hours

当前状态

高度 486.7 km
速度 7.62 km/s
星下点 -18.08°S, 105.89°W
发射日期 May 18, 2024
运行时间 1.5 years
类型 internet

技术详情

分类 Payload
质量 730.00 kg
干质量 700.00 kg
总质量 730.00 kg
长度 0.30 m
直径 4.10 m
跨度 29.00 m
形状 Box + pan
制造商 SPXS
平台类型 Starlink V2M
阶段状态 In Orbit
所有者/国家 SPXS/US

大型星座

Loading constellations...